MVL 300

导读

MVL 300是独联体(CIS)于2016年4月28日8时发射的人造卫星,作为独联体航天领域的发射任务成果,它承载着区域航天应用的相关使命。自入轨以来,该卫星已稳定运行近十年,在其设计轨道执行既定任务,为独联体相关航天观测或应用需求提供数据支持,是独联体航天活动发展进程中的一颗代表性卫星。

基本信息
目录编号:
41464
目录名称:
MVL 300
国际标识:
2016-026A
轨道中心:
EARTH
卫星名称:
MVL 300
卫星全名:
--
卫星状态:
已陨落 最后检测时间 2023-12-16
发射日期:
2016-04-28 UTC
国别 :
俄罗斯(独联体) (CIS)
星等 :
--
轨道信息
数据来源 国际轨道数据
星历时间: 2023-12-16T18:53:48+0800
轨道信息已过期940天
半长轴: 6529.388km
偏心率: 0.0019508
轨道倾角: 96.936°
近地点辐角 166.159°
升交点赤经 207.746°
平近点角 323.171°
近地点: 138.515km
远地点: 163.991km
周期: 87.512分钟
每日圈数: 16.454856
详细信息
使用方式:
暂无